| time (UTC) | temp F | wind direction | speed MPH | gust MPH | rain 1hr in | rain 24hr in | rain mn in | humidity % | barometer mb |
| 20260901131520 | 64 | 25 | 0.0 | 0.0 | 0.00 | 0.00 | 0.00 | 87 | 1012.7 |
| 20260901130023 | 63 | 25 | 0.0 | 0.0 | 0.00 | 0.00 | 0.00 | 87 | 1012.7 |
| 20260901124519 | 62 | 25 | 0.0 | 0.0 | 0.00 | 0.00 | 0.00 | 86 | 1012.7 |
| 20260901123016 | 62 | 25 | 0.0 | 0.0 | 0.00 | 0.00 | 0.00 | 86 | 1012.8 |
| 20260901121515 | 62 | 25 | 0.0 | 0.0 | 0.00 | 0.00 | 0.00 | 85 | 1012.7 |
| 20260901120015 | 61 | 25 | 0.0 | 0.0 | 0.00 | 0.00 | 0.00 | 86 | 1012.4 |
| 20260901114514 | 61 | 25 | 0.0 | 0.0 | 0.00 | 0.00 | 0.00 | 86 | 1012.3 |
| 20260901113011 | 62 | 25 | 0.0 | 0.0 | 0.00 | 0.00 | 0.00 | 86 | 1011.7 |
| 20260901111510 | 62 | 25 | 0.0 | 0.0 | 0.00 | 0.00 | 0.00 | 86 | 1011.9 |
| 20260901110008 | 62 | 25 | 0.0 | 0.0 | 0.00 | 0.00 | 0.00 | 86 | 1011.6 |
| 20260901104509 | 62 | 25 | 0.0 | 0.0 | 0.00 | 0.00 | 0.00 | 86 | 1011.7 |
| 20260901103008 | 63 | 25 | 0.0 | 0.0 | 0.00 | 0.00 | 0.00 | 86 | 1011.7 |
| 20260901101507 | 63 | 25 | 0.0 | 0.0 | 0.00 | 0.00 | 0.00 | 86 | 1011.5 |
| 20260901100004 | 63 | 25 | 0.0 | 0.0 | 0.00 | 0.00 | 0.00 | 86 | 1011.6 |
| 20260901094503 | 63 | 25 | 0.0 | 0.0 | 0.00 | 0.00 | 0.00 | 86 | 1011.5 |
| 20260901093001 | 64 | 25 | 0.0 | 0.0 | 0.00 | 0.00 | 0.00 | 86 | 1011.5 |
| 20260901091607 | 64 | 25 | 0.0 | 0.0 | 0.00 | 0.00 | 0.00 | 86 | 1011.7 |
| 20260901090100 | 64 | 25 | 0.0 | 0.0 | 0.00 | 0.00 | 0.00 | 86 | 1011.6 |
| 20260901084559 | 65 | 25 | 0.0 | 0.0 | 0.00 | 0.00 | 0.00 | 86 | 1011.5 |
| 20260901083056 | 65 | 26 | 0.0 | 0.0 | 0.00 | 0.00 | 0.00 | 86 | 1011.5 |
| 20260901081553 | 65 | 25 | 0.0 | 0.0 | 0.00 | 0.00 | 0.00 | 86 | 1011.6 |
| 20260901074549 | 66 | 25 | 0.0 | 0.0 | 0.00 | 0.00 | 0.00 | 86 | 1011.8 |
| 20260901073058 | 66 | 25 | 0.0 | 0.0 | 0.00 | 0.00 | 0.00 | 86 | 1011.5 |
| 20260901071548 | 66 | 25 | 0.0 | 0.0 | 0.00 | 0.00 | 0.00 | 86 | 1011.5 |
| 20260901064547 | 66 | 25 | 0.0 | 0.0 | 0.00 | 0.00 | 0.00 | 86 | 1011.5 |
| 20260901063046 | 66 | 25 | 0.0 | 0.0 | 0.00 | 0.00 | 0.00 | 86 | 1011.6 |
| 20260901061545 | 67 | 25 | 0.0 | 0.0 | 0.00 | 0.00 | 0.00 | 86 | 1011.4 |
| 20260901060044 | 67 | 25 | 0.0 | 0.0 | 0.00 | 0.00 | 0.00 | 85 | 1011.5 |
| 20260901054545 | 67 | 25 | 0.0 | 0.0 | 0.00 | 0.00 | 0.00 | 86 | 1011.5 |
| 20260901053045 | 68 | 25 | 0.0 | 0.0 | 0.00 | 0.00 | 0.00 | 85 | 1011.4 |
| 20260901051544 | 68 | 26 | 0.0 | 0.0 | 0.00 | 0.00 | 0.00 | 85 | 1011.2 |
| 20260901050037 | 68 | 25 | 0.0 | 0.0 | 0.00 | 0.00 | 0.00 | 86 | 1011.3 |
| 20260901044552 | 69 | 25 | 0.0 | 0.0 | 0.00 | 0.00 | 0.00 | 85 | 1011.2 |
| 20260901043038 | 69 | 26 | 0.0 | 0.0 | 0.00 | 0.00 | 0.00 | 86 | 1011.2 |
| 20260901041539 | 69 | 25 | 0.0 | 0.0 | 0.00 | 0.00 | 0.00 | 85 | 1011.0 |
| 20260901040042 | 69 | 25 | 0.0 | 0.0 | 0.00 | 0.00 | 0.00 | 85 | 1011.0 |
| 20260901034537 | 70 | 25 | 0.0 | 0.0 | 0.00 | 0.00 | 0.00 | 85 | 1011.0 |
| 20260901033052 | 70 | 25 | 0.0 | 0.0 | 0.00 | 0.00 | 0.00 | 85 | 1011.0 |
| 20260901031535 | 71 | 25 | 0.0 | 0.0 | 0.00 | 0.00 | 0.00 | 85 | 1011.1 |
| 20260901030036 | 71 | 25 | 0.0 | 0.0 | 0.00 | 0.00 | 0.00 | 85 | 1011.3 |
| 20260901024534 | 71 | 25 | 0.0 | 0.0 | 0.00 | 0.00 | 0.00 | 85 | 1011.2 |
| 20260901023034 | 72 | 25 | 0.0 | 0.0 | 0.00 | 0.00 | 0.00 | 85 | 1011.3 |
| 20260901021544 | 72 | 25 | 0.0 | 0.0 | 0.00 | 0.00 | 0.00 | 85 | 1011.3 |
| 20260901020035 | 72 | 26 | 0.0 | 0.0 | 0.00 | 0.00 | 0.00 | 85 | 1011.3 |
| 20260901014533 | 72 | 25 | 0.0 | 0.0 | 0.00 | 0.00 | 0.00 | 84 | 1011.2 |
| 20260901013132 | 73 | 25 | 0.0 | 0.0 | 0.00 | 0.00 | 0.00 | 84 | 1010.9 |
| 20260901011544 | 73 | 25 | 0.0 | 0.0 | 0.00 | 0.00 | 0.00 | 84 | 1010.7 |
| 20260901010033 | 74 | 26 | 0.0 | 0.0 | 0.00 | 0.00 | 0.00 | 84 | 1010.5 |
| 20260901004532 | 74 | 26 | 0.0 | 0.0 | 0.00 | 0.00 | 0.00 | 83 | 1010.3 |
| 20260901003040 | 74 | 25 | 0.0 | 0.0 | 0.00 | 0.00 | 0.00 | 83 | 1010.1 |
| 20260901001531 | 75 | 25 | 0.0 | 0.0 | 0.00 | 0.00 | 0.00 | 82 | 1010.0 |
| 20260901000034 | 76 | 25 | 0.0 | 0.0 | 0.00 | 0.00 | 0.00 | 81 | 1009.8 |
| 20260831234531 | 76 | 25 | 0.0 | 0.0 | 0.00 | 0.00 | 0.00 | 80 | 1009.6 |
| 20260831233030 | 77 | 26 | 0.0 | 0.0 | 0.00 | 0.00 | 0.00 | 79 | 1009.7 |
| 20260831231530 | 78 | 25 | 0.0 | 0.0 | 0.00 | 0.00 | 0.00 | 79 | 1009.8 |
| 20260831230029 | 78 | 25 | 0.0 | 0.0 | 0.00 | 0.00 | 0.00 | 78 | 1009.7 |
| 20260831224530 | 78 | 25 | 0.0 | 2.0 | 0.00 | 0.00 | 0.00 | 77 | 1009.7 |
| 20260831223037 | 79 | 25 | 0.0 | 1.0 | 0.00 | 0.00 | 0.00 | 77 | 1009.6 |
| 20260831221529 | 79 | 25 | 0.0 | 3.0 | 0.00 | 0.00 | 0.00 | 77 | 1009.4 |
| 20260831220029 | 79 | 23 | 0.0 | 2.0 | 0.00 | 0.00 | 0.00 | 77 | 1009.2 |
| 20260831214526 | 79 | 23 | 0.0 | 3.0 | 0.00 | 0.00 | 0.00 | 77 | 1009.4 |
| 20260831213024 | 78 | 43 | 0.0 | 1.0 | 0.00 | 0.00 | 0.00 | 78 | 1009.4 |
| 20260831211534 | 78 | 43 | 1.0 | 4.0 | 0.00 | 0.00 | 0.00 | 77 | 1009.4 |
| 20260831210022 | 78 | 27 | 0.0 | 4.0 | 0.00 | 0.00 | 0.00 | 78 | 1009.3 |
| 20260831204522 | 77 | 23 | 1.0 | 3.0 | 0.00 | 0.00 | 0.00 | 78 | 1009.1 |
| 20260831203029 | 77 | 23 | 1.0 | 2.0 | 0.00 | 0.00 | 0.00 | 78 | 1009.2 |
| 20260831201520 | 77 | 23 | 0.0 | 1.0 | 0.00 | 0.00 | 0.00 | 78 | 1009.3 |
| 20260831200026 | 77 | 23 | 1.0 | 3.0 | 0.00 | 0.00 | 0.00 | 78 | 1009.3 |
| 20260831194521 | 77 | 27 | 0.0 | 3.0 | 0.00 | 0.00 | 0.00 | 78 | 1009.2 |
| 20260831193017 | 76 | 12 | 1.0 | 3.0 | 0.00 | 0.00 | 0.00 | 78 | 1009.3 |
| 20260831191515 | 75 | 36 | 0.0 | 1.0 | 0.00 | 0.00 | 0.00 | 78 | 1009.2 |
| 20260831190011 | 74 | 36 | 1.0 | 4.0 | 0.00 | 0.00 | 0.00 | 79 | 1009.3 |
| 20260831184507 | 73 | 290 | 0.0 | 2.0 | 0.00 | 0.00 | 0.00 | 80 | 1009.3 |
| 20260831183118 | 73 | 23 | 1.0 | 2.0 | 0.00 | 0.00 | 0.00 | 80 | 1009.5 |
| 20260831181502 | 72 | 23 | 0.0 | 4.0 | 0.00 | 0.00 | 0.00 | 81 | 1009.7 |
| 20260831180000 | 72 | 24 | 0.0 | 2.0 | 0.00 | 0.00 | 0.00 | 82 | 1010.1 |
| 20260831174559 | 71 | 24 | 0.0 | 3.0 | 0.00 | 0.00 | 0.00 | 83 | 1010.1 |
| 20260831173058 | 70 | 24 | 1.0 | 3.0 | 0.00 | 0.00 | 0.00 | 84 | 1010.3 |
| 20260831171552 | 70 | 24 | 0.0 | 2.0 | 0.00 | 0.00 | 0.00 | 85 | 1010.2 |
| 20260831170052 | 69 | 24 | 0.0 | 1.0 | 0.00 | 0.00 | 0.00 | 85 | 1010.1 |
| 20260831164550 | 69 | 24 | 0.0 | 1.0 | 0.00 | 0.00 | 0.00 | 86 | 1010.2 |
| 20260831163048 | 69 | 24 | 1.0 | 3.0 | 0.00 | 0.00 | 0.00 | 86 | 1010.2 |
| 20260831161548 | 68 | 24 | 0.0 | 2.0 | 0.00 | 0.00 | 0.00 | 87 | 1010.4 |
| 20260831160046 | 68 | 24 | 0.0 | 3.0 | 0.00 | 0.00 | 0.00 | 87 | 1010.4 |
| 20260831154546 | 68 | 24 | 0.0 | 1.0 | 0.00 | 0.00 | 0.00 | 87 | 1010.3 |
| 20260831153043 | 68 | 24 | 0.0 | 0.0 | 0.00 | 0.00 | 0.00 | 87 | 1010.2 |
| 20260831151542 | 68 | 13 | 1.0 | 5.0 | 0.00 | 0.00 | 0.00 | 88 | 1010.0 |
| 20260831150041 | 67 | 306 | 0.0 | 3.0 | 0.00 | 0.00 | 0.00 | 87 | 1010.1 |
| 20260831144549 | 67 | 287 | 1.0 | 4.0 | 0.00 | 0.00 | 0.00 | 87 | 1010.0 |
| 20260831143037 | 67 | 286 | 0.0 | 4.0 | 0.00 | 0.00 | 0.00 | 87 | 1009.8 |
| 20260831141539 | 67 | 293 | 0.0 | 4.0 | 0.00 | 0.00 | 0.00 | 87 | 1009.8 |
| 20260831140036 | 67 | 296 | 0.0 | 3.0 | 0.00 | 0.01 | 0.00 | 87 | 1009.8 |
| 20260831134534 | 67 | 296 | 1.0 | 3.0 | 0.00 | 0.01 | 0.00 | 87 | 1010.0 |
| 20260831133035 | 67 | 296 | 1.0 | 5.0 | 0.00 | 0.01 | 0.00 | 87 | 1010.0 |